"Time","Value","Approval","myLocation"
"2023-07-20 15:00",14.723,"Working","OW385"
"2023-07-20 16:00",14.765,"Working","OW385"
"2023-07-20 17:00",14.803,"Working","OW385"
"2023-07-20 18:00",14.849,"Working","OW385"
"2023-07-20 19:00",14.867,"Working","OW385"
"2023-07-20 20:00",14.909,"Working","OW385"
"2023-07-20 21:00",14.9,"Working","OW385"
"2023-07-20 22:00",14.857,"Working","OW385"
"2023-07-20 23:00",14.824,"Working","OW385"
"2023-07-21 00:00",14.799,"Working","OW385"
"2023-07-21 01:00",14.774,"Working","OW385"
"2023-07-21 02:00",14.753,"Working","OW385"
"2023-07-21 03:00",14.733,"Working","OW385"
"2023-07-21 04:00",14.717,"Working","OW385"
"2023-07-21 05:00",14.72,"Working","OW385"
"2023-07-21 06:00",14.703,"Working","OW385"
"2023-07-21 07:00",14.688,"Working","OW385"
"2023-07-21 08:00",14.675,"Working","OW385"
"2023-07-21 09:00",14.664,"Working","OW385"
"2023-07-21 10:00",14.651,"Working","OW385"
"2023-07-21 11:00",14.648,"Working","OW385"
"2023-07-21 12:00",14.636,"Working","OW385"
"2023-07-21 13:00",14.626,"Working","OW385"
"2023-07-21 14:00",14.638,"Working","OW385"
"2023-07-21 15:00",14.686,"Working","OW385"
"2023-07-21 16:00",14.737,"Working","OW385"
"2023-07-21 17:00",14.804,"Working","OW385"
"2023-07-21 18:00",14.837,"Working","OW385"
"2023-07-21 19:00",14.854,"Working","OW385"
"2023-07-21 20:00",14.864,"Working","OW385"
"2023-07-21 21:00",14.856,"Working","OW385"
"2023-07-21 22:00",14.822,"Working","OW385"
"2023-07-21 23:00",14.796,"Working","OW385"
"2023-07-22 00:00",14.774,"Working","OW385"
"2023-07-22 01:00",14.756,"Working","OW385"
"2023-07-22 02:00",14.739,"Working","OW385"
"2023-07-22 03:00",14.724,"Working","OW385"
"2023-07-22 04:00",14.708,"Working","OW385"
"2023-07-22 05:00",14.714,"Working","OW385"
"2023-07-22 06:00",14.701,"Working","OW385"
"2023-07-22 07:00",14.689,"Working","OW385"
"2023-07-22 08:00",14.677,"Working","OW385"
"2023-07-22 09:00",14.666,"Working","OW385"
"2023-07-22 10:00",14.66,"Working","OW385"
"2023-07-22 11:00",14.652,"Working","OW385"
"2023-07-22 12:00",14.643,"Working","OW385"
"2023-07-22 13:00",14.632,"Working","OW385"
"2023-07-22 14:00",14.633,"Working","OW385"
"2023-07-22 15:00",14.652,"Working","OW385"
"2023-07-22 16:00",14.68,"Working","OW385"
"2023-07-22 17:00",14.724,"Working","OW385"
"2023-07-22 18:00",14.744,"Working","OW385"
"2023-07-22 19:00",14.774,"Working","OW385"
"2023-07-22 20:00",14.777,"Working","OW385"
"2023-07-22 21:00",14.784,"Working","OW385"
"2023-07-22 22:00",14.756,"Working","OW385"
"2023-07-22 23:00",14.735,"Working","OW385"
"2023-07-23 00:00",14.719,"Working","OW385"
"2023-07-23 01:00",14.702,"Working","OW385"
"2023-07-23 02:00",14.688,"Working","OW385"
"2023-07-23 03:00",14.675,"Working","OW385"
"2023-07-23 04:00",14.664,"Working","OW385"
"2023-07-23 05:00",14.672,"Working","OW385"
"2023-07-23 06:00",14.66,"Working","OW385"
"2023-07-23 07:00",14.649,"Working","OW385"
"2023-07-23 08:00",14.64,"Working","OW385"
"2023-07-23 09:00",14.631,"Working","OW385"
"2023-07-23 10:00",14.623,"Working","OW385"
"2023-07-23 11:00",14.613,"Working","OW385"
"2023-07-23 12:00",14.603,"Working","OW385"
"2023-07-23 13:00",14.596,"Working","OW385"
"2023-07-23 14:00",14.587,"Working","OW385"
"2023-07-23 15:00",14.578,"Working","OW385"
"2023-07-23 16:00",14.567,"Working","OW385"
"2023-07-23 17:00",14.559,"Working","OW385"
"2023-07-23 18:00",14.554,"Working","OW385"
"2023-07-23 19:00",14.549,"Working","OW385"
"2023-07-23 20:00",14.542,"Working","OW385"
"2023-07-23 21:00",14.536,"Working","OW385"
"2023-07-23 22:00",14.532,"Working","OW385"
"2023-07-23 23:00",14.525,"Working","OW385"
"2023-07-24 00:00",14.518,"Working","OW385"
"2023-07-24 01:00",14.511,"Working","OW385"
"2023-07-24 02:00",14.502,"Working","OW385"
"2023-07-24 03:00",14.492,"Working","OW385"
"2023-07-24 04:00",14.482,"Working","OW385"
"2023-07-24 05:00",14.499,"Working","OW385"
"2023-07-24 06:00",14.499,"Working","OW385"
"2023-07-24 07:00",14.496,"Working","OW385"
"2023-07-24 08:00",14.493,"Working","OW385"
"2023-07-24 09:00",14.49,"Working","OW385"
"2023-07-24 10:00",14.485,"Working","OW385"
"2023-07-24 11:00",14.483,"Working","OW385"
"2023-07-24 12:00",14.481,"Working","OW385"
"2023-07-24 13:00",14.475,"Working","OW385"
"2023-07-24 14:00",14.471,"Working","OW385"
"2023-07-24 15:00",14.469,"Working","OW385"
"2023-07-24 16:00",14.461,"Working","OW385"
"2023-07-24 17:00",14.459,"Working","OW385"
"2023-07-24 18:00",14.453,"Working","OW385"
"2023-07-24 19:00",14.45,"Working","OW385"
"2023-07-24 20:00",14.44,"Working","OW385"
"2023-07-24 21:00",14.442,"Working","OW385"
"2023-07-24 22:00",14.438,"Working","OW385"
"2023-07-24 23:00",14.434,"Working","OW385"
"2023-07-25 00:00",14.425,"Working","OW385"
"2023-07-25 01:00",14.418,"Working","OW385"
"2023-07-25 02:00",14.41,"Working","OW385"
"2023-07-25 03:00",14.405,"Working","OW385"
"2023-07-25 04:00",14.399,"Working","OW385"
"2023-07-25 05:00",14.423,"Working","OW385"
"2023-07-25 06:00",14.423,"Working","OW385"
"2023-07-25 07:00",14.422,"Working","OW385"
"2023-07-25 08:00",14.42,"Working","OW385"
"2023-07-25 09:00",14.421,"Working","OW385"
"2023-07-25 10:00",14.422,"Working","OW385"
"2023-07-25 11:00",14.42,"Working","OW385"
"2023-07-25 12:00",14.418,"Working","OW385"
"2023-07-25 13:00",14.423,"Working","OW385"
"2023-07-25 14:00",14.421,"Working","OW385"
"2023-07-25 15:00",14.418,"Working","OW385"
"2023-07-25 16:00",14.417,"Working","OW385"
"2023-07-25 17:00",14.415,"Working","OW385"
"2023-07-25 18:00",14.411,"Working","OW385"
"2023-07-25 19:00",14.41,"Working","OW385"
"2023-07-25 20:00",14.406,"Working","OW385"
"2023-07-25 21:00",14.4,"Working","OW385"
"2023-07-25 22:00",14.398,"Working","OW385"
"2023-07-25 23:00",14.392,"Working","OW385"
"2023-07-26 00:00",14.384,"Working","OW385"
"2023-07-26 01:00",14.376,"Working","OW385"
"2023-07-26 02:00",14.369,"Working","OW385"
"2023-07-26 03:00",14.363,"Working","OW385"
"2023-07-26 04:00",14.358,"Working","OW385"
"2023-07-26 05:00",14.38,"Working","OW385"
"2023-07-26 06:00",14.381,"Working","OW385"
"2023-07-26 07:00",14.38,"Working","OW385"
"2023-07-26 08:00",14.38,"Working","OW385"
"2023-07-26 09:00",14.38,"Working","OW385"
"2023-07-26 10:00",14.38,"Working","OW385"
"2023-07-26 11:00",14.377,"Working","OW385"
"2023-07-26 12:00",14.373,"Working","OW385"
"2023-07-26 13:00",14.368,"Working","OW385"
"2023-07-26 14:00",14.364,"Working","OW385"
"2023-07-26 15:00",14.361,"Working","OW385"
"2023-07-26 16:00",14.371,"Working","OW385"
"2023-07-26 17:00",14.367,"Working","OW385"
"2023-07-26 18:00",14.362,"Working","OW385"
"2023-07-26 19:00",14.358,"Working","OW385"
"2023-07-26 20:00",14.354,"Working","OW385"
"2023-07-26 21:00",14.347,"Working","OW385"
"2023-07-26 22:00",14.343,"Working","OW385"
"2023-07-26 23:00",14.336,"Working","OW385"
"2023-07-27 00:00",14.327,"Working","OW385"
"2023-07-27 01:00",14.32,"Working","OW385"
"2023-07-27 02:00",14.313,"Working","OW385"
"2023-07-27 03:00",14.307,"Working","OW385"
"2023-07-27 04:00",14.301,"Working","OW385"
"2023-07-27 05:00",14.325,"Working","OW385"
"2023-07-27 06:00",14.327,"Working","OW385"
"2023-07-27 07:00",14.326,"Working","OW385"
"2023-07-27 08:00",14.326,"Working","OW385"
"2023-07-27 09:00",14.328,"Working","OW385"
"2023-07-27 10:00",14.327,"Working","OW385"
"2023-07-27 11:00",14.325,"Working","OW385"
"2023-07-27 12:00",14.326,"Working","OW385"
"2023-07-27 13:00",14.323,"Working","OW385"
"2023-07-27 14:00",14.333,"Working","OW385"
"2023-07-27 15:00",14.347,"Working","OW385"
"2023-07-27 16:00",14.395,"Working","OW385"
"2023-07-27 17:00",14.431,"Working","OW385"
"2023-07-27 18:00",14.469,"Working","OW385"
"2023-07-27 19:00",14.483,"Working","OW385"
"2023-07-27 20:00",14.493,"Working","OW385"
"2023-07-27 21:00",14.498,"Working","OW385"
"2023-07-27 22:00",14.489,"Working","OW385"
"2023-07-27 23:00",14.48,"Working","OW385"
"2023-07-28 00:00",14.472,"Working","OW385"
"2023-07-28 01:00",14.466,"Working","OW385"
"2023-07-28 02:00",14.462,"Working","OW385"
"2023-07-28 03:00",14.457,"Working","OW385"
"2023-07-28 04:00",14.452,"Working","OW385"
"2023-07-28 05:00",14.449,"Working","OW385"
"2023-07-28 06:00",14.445,"Working","OW385"
"2023-07-28 07:00",14.442,"Working","OW385"
"2023-07-28 08:00",14.44,"Working","OW385"
"2023-07-28 09:00",14.44,"Working","OW385"
"2023-07-28 10:00",14.435,"Working","OW385"
"2023-07-28 11:00",14.429,"Working","OW385"
"2023-07-28 12:00",14.423,"Working","OW385"
"2023-07-28 13:00",14.418,"Working","OW385"
"2023-07-28 14:00",14.414,"Working","OW385"
"2023-07-28 15:00",14.412,"Working","OW385"
"2023-07-28 16:00",14.406,"Working","OW385"
"2023-07-28 17:00",14.402,"Working","OW385"
"2023-07-28 18:00",14.397,"Working","OW385"
"2023-07-28 19:00",14.395,"Working","OW385"
"2023-07-28 20:00",14.395,"Working","OW385"
"2023-07-28 21:00",14.393,"Working","OW385"
"2023-07-28 22:00",14.391,"Working","OW385"
"2023-07-28 23:00",14.386,"Working","OW385"
"2023-07-29 00:00",14.383,"Working","OW385"
"2023-07-29 01:00",14.379,"Working","OW385"
"2023-07-29 02:00",14.375,"Working","OW385"
"2023-07-29 03:00",14.366,"Working","OW385"
"2023-07-29 04:00",14.36,"Working","OW385"
"2023-07-29 05:00",14.381,"Working","OW385"
"2023-07-29 06:00",14.381,"Working","OW385"
"2023-07-29 07:00",14.381,"Working","OW385"
"2023-07-29 08:00",14.379,"Working","OW385"
"2023-07-29 09:00",14.38,"Working","OW385"
"2023-07-29 10:00",14.38,"Working","OW385"
"2023-07-29 11:00",14.384,"Working","OW385"
"2023-07-29 12:00",14.382,"Working","OW385"
"2023-07-29 13:00",14.381,"Working","OW385"
"2023-07-29 14:00",14.377,"Working","OW385"
"2023-07-29 15:00",14.375,"Working","OW385"
"2023-07-29 16:00",14.371,"Working","OW385"
"2023-07-29 17:00",14.368,"Working","OW385"
"2023-07-29 18:00",14.365,"Working","OW385"
"2023-07-29 19:00",14.362,"Working","OW385"
"2023-07-29 20:00",14.365,"Working","OW385"
"2023-07-29 21:00",14.378,"Working","OW385"
"2023-07-29 22:00",14.376,"Working","OW385"
"2023-07-29 23:00",14.373,"Working","OW385"
"2023-07-30 00:00",14.373,"Working","OW385"
"2023-07-30 01:00",14.37,"Working","OW385"
"2023-07-30 02:00",14.367,"Working","OW385"
"2023-07-30 03:00",14.363,"Working","OW385"
"2023-07-30 04:00",14.362,"Working","OW385"
"2023-07-30 05:00",14.381,"Working","OW385"
"2023-07-30 06:00",14.379,"Working","OW385"
"2023-07-30 07:00",14.378,"Working","OW385"
"2023-07-30 08:00",14.378,"Working","OW385"
"2023-07-30 09:00",14.379,"Working","OW385"
"2023-07-30 10:00",14.381,"Working","OW385"
"2023-07-30 11:00",14.38,"Working","OW385"
"2023-07-30 12:00",14.377,"Working","OW385"
"2023-07-30 13:00",14.38,"Working","OW385"
"2023-07-30 14:00",14.379,"Working","OW385"
"2023-07-30 15:00",14.38,"Working","OW385"
"2023-07-30 16:00",14.381,"Working","OW385"
"2023-07-30 17:00",14.382,"Working","OW385"
"2023-07-30 18:00",14.383,"Working","OW385"
"2023-07-30 19:00",14.387,"Working","OW385"
"2023-07-30 20:00",14.388,"Working","OW385"
"2023-07-30 21:00",14.392,"Working","OW385"
"2023-07-30 22:00",14.394,"Working","OW385"
"2023-07-30 23:00",14.396,"Working","OW385"
"2023-07-31 00:00",14.4,"Working","OW385"
"2023-07-31 01:00",14.401,"Working","OW385"
"2023-07-31 02:00",14.403,"Working","OW385"
"2023-07-31 03:00",14.404,"Working","OW385"
"2023-07-31 04:00",14.409,"Working","OW385"
"2023-07-31 05:00",14.425,"Working","OW385"
"2023-07-31 06:00",14.427,"Working","OW385"
"2023-07-31 07:00",14.431,"Working","OW385"
"2023-07-31 08:00",14.436,"Working","OW385"
"2023-07-31 09:00",14.441,"Working","OW385"
"2023-07-31 10:00",14.442,"Working","OW385"
"2023-07-31 11:00",14.447,"Working","OW385"
"2023-07-31 12:00",14.446,"Working","OW385"
"2023-07-31 13:00",14.444,"Working","OW385"
"2023-07-31 14:00",14.443,"Working","OW385"
"2023-07-31 15:00",14.439,"Working","OW385"
"2023-07-31 16:00",14.436,"Working","OW385"
"2023-07-31 17:00",14.433,"Working","OW385"
"2023-07-31 18:00",14.429,"Working","OW385"
"2023-07-31 19:00",14.428,"Working","OW385"
"2023-07-31 20:00",14.447,"Working","OW385"
"2023-07-31 21:00",14.455,"Working","OW385"
"2023-07-31 22:00",14.453,"Working","OW385"
"2023-07-31 23:00",14.452,"Working","OW385"
"2023-08-01 00:00",14.452,"Working","OW385"
"2023-08-01 01:00",14.449,"Working","OW385"
"2023-08-01 02:00",14.447,"Working","OW385"
"2023-08-01 03:00",14.445,"Working","OW385"
"2023-08-01 04:00",14.445,"Working","OW385"
"2023-08-01 05:00",14.458,"Working","OW385"
"2023-08-01 06:00",14.458,"Working","OW385"
"2023-08-01 07:00",14.456,"Working","OW385"
"2023-08-01 08:00",14.456,"Working","OW385"
"2023-08-01 09:00",14.458,"Working","OW385"
"2023-08-01 10:00",14.459,"Working","OW385"
"2023-08-01 11:00",14.458,"Working","OW385"
"2023-08-01 12:00",14.459,"Working","OW385"
"2023-08-01 13:00",14.456,"Working","OW385"
"2023-08-01 14:00",14.455,"Working","OW385"
"2023-08-01 15:00",14.451,"Working","OW385"
"2023-08-01 16:00",14.475,"Working","OW385"
"2023-08-01 17:00",14.505,"Working","OW385"
"2023-08-01 18:00",14.524,"Working","OW385"
"2023-08-01 19:00",14.551,"Working","OW385"
"2023-08-01 20:00",14.533,"Working","OW385"
"2023-08-01 21:00",14.522,"Working","OW385"
"2023-08-01 22:00",14.513,"Working","OW385"
"2023-08-01 23:00",14.505,"Working","OW385"
"2023-08-02 00:00",14.499,"Working","OW385"
"2023-08-02 01:00",14.493,"Working","OW385"
"2023-08-02 02:00",14.485,"Working","OW385"
"2023-08-02 03:00",14.479,"Working","OW385"
"2023-08-02 04:00",14.474,"Working","OW385"
"2023-08-02 05:00",14.486,"Working","OW385"
"2023-08-02 06:00",14.484,"Working","OW385"
"2023-08-02 07:00",14.482,"Working","OW385"
"2023-08-02 08:00",14.48,"Working","OW385"
"2023-08-02 09:00",14.478,"Working","OW385"
"2023-08-02 10:00",14.477,"Working","OW385"
"2023-08-02 11:00",14.478,"Working","OW385"
"2023-08-02 12:00",14.477,"Working","OW385"
"2023-08-02 13:00",14.476,"Working","OW385"
"2023-08-02 14:00",14.473,"Working","OW385"
"2023-08-02 15:00",14.475,"Working","OW385"
"2023-08-02 16:00",14.472,"Working","OW385"
"2023-08-02 17:00",14.468,"Working","OW385"
"2023-08-02 18:00",14.464,"Working","OW385"
"2023-08-02 19:00",14.462,"Working","OW385"
"2023-08-02 20:00",14.458,"Working","OW385"
"2023-08-02 21:00",14.456,"Working","OW385"
"2023-08-02 22:00",14.454,"Working","OW385"
"2023-08-02 23:00",14.452,"Working","OW385"
"2023-08-03 00:00",14.45,"Working","OW385"
"2023-08-03 01:00",14.447,"Working","OW385"
"2023-08-03 02:00",14.444,"Working","OW385"
"2023-08-03 03:00",14.442,"Working","OW385"
"2023-08-03 04:00",14.439,"Working","OW385"
"2023-08-03 05:00",14.458,"Working","OW385"
"2023-08-03 06:00",14.455,"Working","OW385"
"2023-08-03 07:00",14.453,"Working","OW385"
"2023-08-03 08:00",14.453,"Working","OW385"
"2023-08-03 09:00",14.455,"Working","OW385"
"2023-08-03 10:00",14.455,"Working","OW385"
"2023-08-03 11:00",14.461,"Working","OW385"
"2023-08-03 12:00",14.46,"Working","OW385"
"2023-08-03 13:00",14.458,"Working","OW385"
"2023-08-03 14:00",14.457,"Working","OW385"
"2023-08-03 15:00",14.453,"Working","OW385"
"2023-08-03 16:00",14.486,"Working","OW385"
"2023-08-03 17:00",14.529,"Working","OW385"
"2023-08-03 18:00",14.562,"Working","OW385"
"2023-08-03 19:00",14.581,"Working","OW385"
"2023-08-03 20:00",14.568,"Working","OW385"
"2023-08-03 21:00",14.556,"Working","OW385"
"2023-08-03 22:00",14.547,"Working","OW385"
"2023-08-03 23:00",14.54,"Working","OW385"
"2023-08-04 00:00",14.535,"Working","OW385"
"2023-08-04 01:00",14.531,"Working","OW385"
"2023-08-04 02:00",14.525,"Working","OW385"
"2023-08-04 03:00",14.52,"Working","OW385"
"2023-08-04 04:00",14.514,"Working","OW385"
"2023-08-04 05:00",14.527,"Working","OW385"
"2023-08-04 06:00",14.526,"Working","OW385"
"2023-08-04 07:00",14.522,"Working","OW385"
"2023-08-04 08:00",14.519,"Working","OW385"
"2023-08-04 09:00",14.517,"Working","OW385"
"2023-08-04 10:00",14.513,"Working","OW385"
"2023-08-04 11:00",14.521,"Working","OW385"
"2023-08-04 12:00",14.542,"Working","OW385"
"2023-08-04 13:00",14.557,"Working","OW385"
"2023-08-04 14:00",14.58,"Working","OW385"
"2023-08-04 15:00",14.609,"Working","OW385"
"2023-08-04 16:00",14.674,"Working","OW385"
"2023-08-04 17:00",14.736,"Working","OW385"
"2023-08-04 18:00",14.765,"Working","OW385"
"2023-08-04 19:00",14.801,"Working","OW385"
"2023-08-04 20:00",14.817,"Working","OW385"
"2023-08-04 21:00",14.822,"Working","OW385"
"2023-08-04 22:00",14.803,"Working","OW385"
"2023-08-04 23:00",14.786,"Working","OW385"
"2023-08-05 00:00",14.773,"Working","OW385"
"2023-08-05 01:00",14.761,"Working","OW385"
"2023-08-05 02:00",14.753,"Working","OW385"
"2023-08-05 03:00",14.742,"Working","OW385"
"2023-08-05 04:00",14.733,"Working","OW385"
"2023-08-05 05:00",14.741,"Working","OW385"
"2023-08-05 06:00",14.733,"Working","OW385"
"2023-08-05 07:00",14.723,"Working","OW385"
"2023-08-05 08:00",14.717,"Working","OW385"
"2023-08-05 09:00",14.715,"Working","OW385"
"2023-08-05 10:00",14.711,"Working","OW385"
"2023-08-05 11:00",14.705,"Working","OW385"
"2023-08-05 12:00",14.706,"Working","OW385"
"2023-08-05 13:00",14.736,"Working","OW385"
"2023-08-05 14:00",14.783,"Working","OW385"
"2023-08-05 15:00",14.821,"Working","OW385"
"2023-08-05 16:00",14.858,"Working","OW385"
"2023-08-05 17:00",14.889,"Working","OW385"
"2023-08-05 18:00",14.926,"Working","OW385"
"2023-08-05 19:00",14.957,"Working","OW385"
"2023-08-05 20:00",14.95,"Working","OW385"
"2023-08-05 21:00",14.924,"Working","OW385"
"2023-08-05 22:00",14.901,"Working","OW385"
"2023-08-05 23:00",14.885,"Working","OW385"
"2023-08-06 00:00",14.871,"Working","OW385"
"2023-08-06 01:00",14.86,"Working","OW385"
"2023-08-06 02:00",14.848,"Working","OW385"
"2023-08-06 03:00",14.837,"Working","OW385"
"2023-08-06 04:00",14.826,"Working","OW385"
"2023-08-06 05:00",14.835,"Working","OW385"
"2023-08-06 06:00",14.824,"Working","OW385"
"2023-08-06 07:00",14.815,"Working","OW385"
"2023-08-06 08:00",14.808,"Working","OW385"
"2023-08-06 09:00",14.801,"Working","OW385"
"2023-08-06 10:00",14.793,"Working","OW385"
"2023-08-06 11:00",14.786,"Working","OW385"
"2023-08-06 12:00",14.78,"Working","OW385"
"2023-08-06 13:00",14.774,"Working","OW385"
"2023-08-06 14:00",14.767,"Working","OW385"
"2023-08-06 15:00",14.76,"Working","OW385"
"2023-08-06 16:00",14.759,"Working","OW385"
"2023-08-06 17:00",14.753,"Working","OW385"
"2023-08-06 18:00",14.746,"Working","OW385"
"2023-08-06 19:00",14.744,"Working","OW385"
"2023-08-06 20:00",14.756,"Working","OW385"
"2023-08-06 21:00",14.753,"Working","OW385"
"2023-08-06 22:00",14.747,"Working","OW385"
"2023-08-06 23:00",14.741,"Working","OW385"
"2023-08-07 00:00",14.737,"Working","OW385"
"2023-08-07 01:00",14.731,"Working","OW385"
"2023-08-07 02:00",14.726,"Working","OW385"
"2023-08-07 03:00",14.722,"Working","OW385"
"2023-08-07 04:00",14.717,"Working","OW385"
"2023-08-07 05:00",14.73,"Working","OW385"
"2023-08-07 06:00",14.726,"Working","OW385"
"2023-08-07 07:00",14.72,"Working","OW385"
"2023-08-07 08:00",14.715,"Working","OW385"
"2023-08-07 09:00",14.711,"Working","OW385"
"2023-08-07 10:00",14.707,"Working","OW385"
"2023-08-07 11:00",14.703,"Working","OW385"
"2023-08-07 12:00",14.698,"Working","OW385"
"2023-08-07 13:00",14.696,"Working","OW385"
"2023-08-07 14:00",14.69,"Working","OW385"
"2023-08-07 15:00",14.684,"Working","OW385"
"2023-08-07 16:00",14.766,"Working","OW385"
"2023-08-07 17:00",14.815,"Working","OW385"
"2023-08-07 18:00",14.855,"Working","OW385"
"2023-08-07 19:00",14.883,"Working","OW385"
"2023-08-07 20:00",14.889,"Working","OW385"
"2023-08-07 21:00",14.881,"Working","OW385"
"2023-08-07 22:00",14.863,"Working","OW385"
"2023-08-07 23:00",14.85,"Working","OW385"
"2023-08-08 00:00",14.84,"Working","OW385"
"2023-08-08 01:00",14.829,"Working","OW385"
"2023-08-08 02:00",14.821,"Working","OW385"
"2023-08-08 03:00",14.814,"Working","OW385"
"2023-08-08 04:00",14.81,"Working","OW385"
"2023-08-08 05:00",14.819,"Working","OW385"
"2023-08-08 06:00",14.812,"Working","OW385"
"2023-08-08 07:00",14.806,"Working","OW385"
"2023-08-08 08:00",14.799,"Working","OW385"
"2023-08-08 09:00",14.796,"Working","OW385"
"2023-08-08 10:00",14.791,"Working","OW385"
"2023-08-08 11:00",14.785,"Working","OW385"
"2023-08-08 12:00",14.78,"Working","OW385"
"2023-08-08 13:00",14.774,"Working","OW385"
"2023-08-08 14:00",14.77,"Working","OW385"
"2023-08-08 15:00",14.762,"Working","OW385"
"2023-08-08 16:00",14.757,"Working","OW385"
"2023-08-08 17:00",14.752,"Working","OW385"
"2023-08-08 18:00",14.746,"Working","OW385"
"2023-08-08 19:00",14.741,"Working","OW385"
"2023-08-08 20:00",14.736,"Working","OW385"
"2023-08-08 21:00",14.729,"Working","OW385"
"2023-08-08 22:00",14.722,"Working","OW385"
"2023-08-08 23:00",14.716,"Working","OW385"
"2023-08-09 00:00",14.71,"Working","OW385"
"2023-08-09 01:00",14.705,"Working","OW385"
"2023-08-09 02:00",14.703,"Working","OW385"
"2023-08-09 03:00",14.697,"Working","OW385"
"2023-08-09 04:00",14.693,"Working","OW385"
"2023-08-09 05:00",14.707,"Working","OW385"
"2023-08-09 06:00",14.703,"Working","OW385"
"2023-08-09 07:00",14.699,"Working","OW385"
"2023-08-09 08:00",14.697,"Working","OW385"
"2023-08-09 09:00",14.697,"Working","OW385"
"2023-08-09 10:00",14.694,"Working","OW385"
"2023-08-09 11:00",14.692,"Working","OW385"
"2023-08-09 12:00",14.69,"Working","OW385"
"2023-08-09 13:00",14.687,"Working","OW385"
"2023-08-09 14:00",14.686,"Working","OW385"
"2023-08-09 15:00",14.682,"Working","OW385"
"2023-08-09 16:00",14.681,"Working","OW385"
"2023-08-09 17:00",14.678,"Working","OW385"
"2023-08-09 18:00",14.675,"Working","OW385"
"2023-08-09 19:00",14.674,"Working","OW385"
"2023-08-09 20:00",14.674,"Working","OW385"
"2023-08-09 21:00",14.671,"Working","OW385"
"2023-08-09 22:00",14.666,"Working","OW385"
"2023-08-09 23:00",14.665,"Working","OW385"
"2023-08-10 00:00",14.663,"Working","OW385"
"2023-08-10 01:00",14.661,"Working","OW385"
"2023-08-10 02:00",14.659,"Working","OW385"
"2023-08-10 03:00",14.659,"Working","OW385"
"2023-08-10 04:00",14.657,"Working","OW385"
"2023-08-10 05:00",14.673,"Working","OW385"
"2023-08-10 06:00",14.674,"Working","OW385"
"2023-08-10 07:00",14.672,"Working","OW385"
"2023-08-10 08:00",14.672,"Working","OW385"
"2023-08-10 09:00",14.672,"Working","OW385"
"2023-08-10 10:00",14.669,"Working","OW385"
"2023-08-10 11:00",14.668,"Working","OW385"
"2023-08-10 12:00",14.665,"Working","OW385"
"2023-08-10 13:00",14.665,"Working","OW385"
"2023-08-10 14:00",14.665,"Working","OW385"
"2023-08-10 15:00",14.661,"Working","OW385"
"2023-08-10 16:00",14.658,"Working","OW385"
"2023-08-10 17:00",14.657,"Working","OW385"
"2023-08-10 18:00",14.653,"Working","OW385"
"2023-08-10 19:00",14.653,"Working","OW385"
"2023-08-10 20:00",14.651,"Working","OW385"
"2023-08-10 21:00",14.649,"Working","OW385"
"2023-08-10 22:00",14.647,"Working","OW385"
"2023-08-10 23:00",14.645,"Working","OW385"
"2023-08-11 00:00",14.642,"Working","OW385"
"2023-08-11 01:00",14.639,"Working","OW385"
"2023-08-11 02:00",14.636,"Working","OW385"
"2023-08-11 03:00",14.634,"Working","OW385"
"2023-08-11 04:00",14.633,"Working","OW385"
"2023-08-11 05:00",14.649,"Working","OW385"
"2023-08-11 06:00",14.65,"Working","OW385"
"2023-08-11 07:00",14.65,"Working","OW385"
"2023-08-11 08:00",14.647,"Working","OW385"
"2023-08-11 09:00",14.651,"Working","OW385"
"2023-08-11 10:00",14.648,"Working","OW385"
"2023-08-11 11:00",14.651,"Working","OW385"
"2023-08-11 12:00",14.656,"Working","OW385"
"2023-08-11 13:00",14.654,"Working","OW385"
"2023-08-11 14:00",14.651,"Working","OW385"
"2023-08-11 15:00",14.648,"Working","OW385"
"2023-08-11 16:00",14.675,"Working","OW385"
"2023-08-11 17:00",14.707,"Working","OW385"
"2023-08-11 18:00",14.726,"Working","OW385"
"2023-08-11 19:00",14.738,"Working","OW385"